Location: Kuppenheim
(48.8299°N, 8.2568°E)
Time: 13:58:10
(UTC+00:00)

Resurs 1-4 Rocket - Pass Details

Date: 20 June 2021
Orbit: 800 x 813 km, 98.6° (Epoch: 29 July)

Event Time Altitude Azimuth Distance (km) Brightness Sun altitude
Rises 01:12:42 0° 14° (NNE) 3,344 7.1 -14.1°
Reaches altitude 10° 01:15:03 10° 15° (NNE) 2,410 6.0 -13.9°
Maximum altitude 01:20:23 90° 348° (NNW) 820 2.1 -13.5°
Enters shadow 01:24:23 18° 196° (SSW) 1,878 3.4 -13.2°
